Location: Moena
(46.3667°N, 11.6500°E)
Time: 20:42:53
(UTC+00:00)

FALCON 9 DEB - Pass Details

Date: 03 March 2021
Orbit: 423 x 435 km, 53.0° (Epoch: 20 April)

Event Time Altitude Azimuth Distance (km) Brightness Sun altitude
Rises 18:17:10 0° 300° (WNW) 2,407 8.2 -13.7°
Reaches altitude 10° 18:19:18 10° 303° (WNW) 1,534 6.9 -14.0°
Maximum altitude 18:22:44 70° 27° (NNE) 460 3.1 -14.6°
Enters shadow 18:24:10 32° 104° (ESE) 764 3.8 -14.9°
